Lid_Strength_Index
2 3 2 2 2 2 2 3 2 2 2 2 2 2 1 1 2 4 6 4 3 -0 0 4 5 4 6 6 4 3 8 11 10 10 10 7 8 6 4 4 4 4 4 4 3
1 2 2 3 3 2 2 2 3 2 2 2 2 2 2 2 4 5 2 1 1 -0 5 6 6 6 7 7 5 6 9 9 7 7 8 7 8 6 5 5 5 5 4 4 4
1 1 2 3 2 2 2 2 2 2 2 1 1 2 2 2 5 5 -1 -1 -0 -1 5 5 5 6 7 7 7 7 9 7 7 6 6 7 8 7 6 6 5 6 6 5 4
1 1 1 3 3 3 2 2 2 2 2 2 2 2 2 3 10 3 -1 -1 -2 2 4 5 6 7 8 8 8 10 8 7 6 6 8 8 8 9 7 6 5 5 5 5 5
1 1 1 2 3 3 3 3 2 3 3 2 2 2 2 5 5 1 -1 -1 1 3 4 5 7 7 8 8 9 10 10 10 9 10 9 9 10 9 9 7 6 5 5 6 6
1 2 2 2 3 3 3 3 3 3 3 3 2 1 4 8 3 2 0 2 3 3 4 4 6 6 8 8 8 10 10 10 10 10 10 10 9 10 9 7 7 6 6 7 6
2 2 2 2 3 3 3 3 2 2 2 2 2 1 5 6 2 2 2 3 3 3 5 4 5 7 7 8 8 8 11 11 11 10 10 10 12 11 10 9 8 7 7 7 7
2 2 3 3 3 2 2 3 3 2 2 2 1 2 7 3 1 2 2 4 4 3 4 4 5 6 7 7 9 10 11 13 12 10 10 10 14 11 9 10 10 9 8 8 7
2 3 2 2 3 2 3 3 2 2 2 1 2 4 6 1 4 4 3 5 5 5 5 5 5 8 8 9 11 11 14 13 11 10 10 11 13 11 9 9 10 9 9 9 8
2 2 3 2 2 2 3 3 2 2 2 2 2 6 4 5 3 4 4 5 6 6 6 7 8 9 9 10 14 13 13 12 12 10 9 10 11 10 9 9 9 9 10 9 8
3 3 3 2 2 2 3 4 6 7 4 7 7 6 5 2 2 5 5 5 6 6 9 8 9 11 10 10 11 11 12 12 11 9 9 10 10 10 8 8 8 8 8 9 8
3 3 3 2 2 2 5 5 6 6 9 6 6 6 4 3 6 5 4 7 8 10 9 9 11 9 9 10 10 11 12 12 10 9 10 10 11 9 8 8 7 7 7 7 7
4 4 3 2 2 3 4 4 3 5 8 8 6 7 6 5 7 7 5 7 8 10 10 11 10 9 10 10 11 11 11 11 12 10 9 11 12 11 9 8 8 7 7 7 7
5 4 3 3 4 4 4 3 3 4 10 9 8 6 6 6 8 5 5 6 8 10 10 10 9 10 11 11 10 12 9 10 11 12 15 11 16 12 10 9 8 8 7 7 6
5 4 4 4 5 5 3 3 4 4 15 8 8 5 6 7 7 7 5 7 9 10 9 10 10 10 11 10 9 11 9 10 11 12 13 13 15 12 11 11 9 8 7 6 5
5 4 4 5 6 4 4 4 3 10 16 10 8 8 8 7 7 6 6 5 7 9 9 9 8 9 9 8 8 8 10 11 12 12 16 13 14 14 12 10 9 8 7 6 5
5 5 5 5 6 5 4 4 10 14 9 11 10 9 9 9 8 8 8 8 9 12 12 10 10 7 7 10 9 9 11 15 16 16 16 13 14 13 10 8 8 8 7 5 5
5 5 5 4 4 4 5 9 14 12 11 9 9 9 11 9 9 9 10 10 9 9 11 12 13 9 7 9 10 11 11 14 19 17 15 13 16 12 8 7 7 6 5 5 5
6 4 4 4 5 5 8 13 13 12 10 11 10 11 11 10 10 9 10 10 9 8 11 12 12 8 8 7 8 11 12 10 13 13 15 14 12 9 7 7 6 6 6 6 5
6 5 5 5 5 6 10 13 12 11 9 9 12 10 12 11 11 11 10 8 9 7 7 9 13 9 8 7 8 9 8 13 12 18 18 14 13 13 9 8 7 6 6 5 5
6 7 5 6 5 8 11 12 11 9 9 10 11 11 10 11 10 11 11 9 7 8 7 8 10 11 9 10 10 10 11 11 12 13 16 17 13 8 9 7 7 6 5 5 4
8 9 5 6 9 12 12 12 10 10 8 9 9 9 10 10 11 11 11 9 6 6 9 8 10 13 11 8 7 8 10 10 14 15 14 14 14 7 7 6 6 6 5 4 4
10 9 5 6 12 12 12 11 10 10 10 10 10 9 9 10 11 10 9 7 7 7 9 8 11 15 13 11 9 11 10 9 10 11 14 16 13 7 7 6 6 6 5 5 4
10 12 10 10 11 13 14 13 12 9 10 10 10 9 10 11 9 10 10 8 7 7 6 7 10 12 15 12 10 12 11 10 11 15 14 13 12 9 8 7 6 6 5 5 4
11 13 12 14 13 13 12 13 13 13 10 10 11 10 11 12 11 11 10 9 8 7 7 8 13 11 11 10 10 10 11 10 12 11 15 12 12 9 8 7 6 5 5 5 5
12 13 11 13 13 13 13 13 14 13 12 12 11 11 10 12 11 12 10 10 11 8 9 8 12 10 12 10 11 12 10 10 10 10 11 11 11 7 6 6 6 6 5 5 5
11 11 11 14 14 14 14 14 14 13 12 10 10 11 11 10 8 7 8 8 8 10 9 10 11 12 15 11 12 14 11 10 10 9 10 13 9 7 7 7 7 6 5 5 5